Wetbulb
59.67 59.92 59.65 59.79 59.88 60.53 60.38 59.99 60.03 60.30 60.47 60.31 60.31 60.60 60.54 60.25 60.46 62.18 57.21 66.14 67.96 75.08 74.67 70.97 72.76 72.15 71.79 68.69 69.82 68.38 60.11 57.80 59.42 59.56 60.42 65.48 65.13 67.85 68.92 66.54 66.57 68.56 69.01 70.32 71.65
59.99 60.00 60.13 60.04 60.29 60.44 59.73 59.80 59.84 59.94 59.77 60.03 59.76 60.00 60.20 60.52 61.88 59.28 69.75 74.06 74.20 75.01 67.48 68.83 68.25 69.59 67.30 67.54 66.99 63.72 58.73 59.75 64.28 63.80 63.08 65.56 65.83 65.36 65.35 64.69 63.93 67.37 69.76 70.74 71.14
59.87 59.80 59.75 59.71 59.96 59.55 59.69 60.19 60.23 59.73 59.65 59.66 59.78 60.17 60.96 60.94 60.64 60.73 72.60 73.65 73.79 73.28 67.39 69.62 68.85 66.61 63.70 65.55 65.53 64.89 60.43 64.66 64.83 65.82 67.12 65.28 65.27 66.62 65.02 61.67 63.39 65.32 67.20 69.40 69.66
59.51 59.44 59.26 59.25 58.90 58.85 58.76 59.29 58.55 58.71 58.87 59.29 59.85 60.16 60.71 62.94 56.00 63.53 72.33 73.65 73.65 66.29 66.45 66.83 66.34 63.76 62.35 61.60 65.06 62.25 61.87 65.52 65.63 66.57 65.88 64.64 66.49 65.31 65.89 64.68 67.21 68.21 68.67 68.80 68.85
58.85 58.78 58.36 58.22 58.20 58.24 58.31 58.37 57.90 57.99 58.26 59.27 59.75 60.77 61.53 60.02 58.28 65.99 72.80 71.76 63.54 65.23 65.48 64.87 63.73 63.32 59.42 61.61 64.43 61.38 64.17 65.60 65.87 65.43 66.47 66.75 64.75 63.82 65.00 66.87 68.95 68.46 68.60 67.99 67.96
57.85 57.67 57.63 57.68 57.79 57.77 58.09 57.54 57.56 57.87 58.44 59.45 60.23 60.58 60.55 56.36 66.78 64.49 61.96 61.61 64.62 64.84 65.94 65.21 63.98 63.30 60.23 60.94 61.43 64.19 63.82 64.60 65.64 65.56 65.47 64.39 64.94 65.08 63.92 68.80 67.09 66.95 67.18 67.61 68.33
57.57 57.45 57.41 57.43 57.35 57.48 57.48 56.96 57.00 58.01 59.28 60.82 61.38 62.34 60.41 60.02 65.34 66.29 62.98 62.38 64.85 65.46 62.40 63.68 63.96 62.27 62.01 60.14 64.69 63.76 61.50 64.76 61.64 64.86 64.15 65.36 61.92 62.62 66.84 66.99 66.04 65.25 66.69 67.23 68.03
57.09 57.06 57.10 56.86 56.92 56.74 56.49 56.15 56.87 59.13 61.30 61.14 61.60 62.68 58.73 64.65 66.02 66.30 65.57 63.80 65.32 65.87 63.07 63.17 62.79 62.62 60.91 61.07 63.85 59.88 61.50 56.16 60.76 64.43 65.84 64.03 58.57 64.09 67.41 66.06 65.24 65.78 66.27 66.35 67.36
56.66 56.59 56.51 56.39 56.10 55.96 55.80 55.66 58.06 61.90 62.01 61.28 61.66 61.76 58.04 66.44 61.50 65.45 64.55 61.68 64.68 63.25 62.88 62.39 60.80 59.38 59.79 56.65 56.38 58.90 54.89 56.61 60.58 64.19 62.57 63.42 60.26 65.00 66.54 67.14 65.21 65.74 66.00 65.64 66.83
56.31 56.07 55.99 55.92 55.54 54.87 54.99 55.37 60.49 60.78 61.13 63.44 63.10 60.00 62.61 59.86 61.66 64.10 63.53 63.08 61.64 60.50 59.41 58.86 58.06 56.40 56.77 55.12 50.79 54.11 55.47 56.73 56.50 61.81 60.90 60.74 60.96 64.76 66.81 66.45 65.35 65.81 65.23 65.73 66.00
55.83 55.67 55.55 55.47 54.86 54.19 55.72 62.94 60.61 60.01 62.18 57.65 58.94 58.24 60.15 62.83 63.25 63.11 62.40 60.45 60.13 58.68 54.75 57.44 53.59 51.93 55.41 57.12 57.66 57.05 55.15 54.47 56.66 60.24 58.21 58.22 60.08 63.87 64.04 66.16 65.77 66.02 66.74 66.36 66.27
55.50 55.31 55.38 55.68 55.21 54.50 55.51 60.65 62.50 62.00 57.21 61.82 58.35 61.16 61.81 61.29 59.41 61.61 62.59 56.72 55.99 53.22 55.53 54.25 52.27 55.33 56.83 57.07 55.56 55.21 53.65 54.12 56.75 58.41 58.39 58.29 58.30 61.11 65.14 65.67 66.05 66.31 66.54 66.87 66.05
55.13 55.08 55.49 55.21 54.76 54.53 59.00 60.37 65.99 63.63 56.48 57.93 61.05 57.05 60.38 61.33 58.33 59.18 61.31 58.66 55.88 53.72 53.05 51.61 54.23 57.27 56.05 54.33 53.87 54.07 52.39 52.78 53.76 56.68 57.07 56.19 54.71 60.50 62.99 62.96 66.33 67.14 67.99 68.08 67.56
55.08 55.23 55.06 54.20 53.22 61.46 59.55 63.51 66.10 63.72 53.37 55.51 57.10 58.78 58.59 60.60 56.78 61.43 62.47 59.58 56.81 54.16 54.29 53.13 55.53 54.60 54.55 53.24 54.16 51.47 54.88 54.50 54.47 53.51 48.83 56.06 47.67 59.68 58.85 58.80 61.38 65.37 66.55 67.35 67.87
55.35 54.88 54.17 53.53 56.88 61.84 64.18 65.26 63.91 62.39 46.34 56.57 57.16 61.77 59.72 57.73 58.58 58.30 63.27 59.62 54.64 55.60 54.98 52.10 53.58 53.07 52.31 53.04 55.05 52.04 54.93 54.44 54.97 53.24 52.10 52.50 50.98 57.09 57.72 56.70 61.64 63.77 65.68 66.87 68.48
54.64 54.01 53.81 55.52 57.71 62.40 65.29 64.94 62.57 52.68 47.04 54.12 57.31 56.22 55.05 57.51 57.10 59.62 59.55 61.62 59.68 56.27 56.15 54.73 56.46 55.61 54.62 55.57 55.09 55.97 53.64 53.65 54.47 52.93 47.98 52.13 51.84 53.57 55.86 59.29 60.40 63.65 65.39 67.04 67.89
53.28 52.46 53.54 61.52 61.11 61.57 64.07 61.76 52.62 48.25 56.61 54.25 55.24 56.71 54.47 54.37 54.98 57.29 56.71 56.15 53.61 51.07 50.98 53.95 53.54 55.04 55.77 52.01 53.73 52.76 50.69 46.25 46.47 47.27 47.54 54.35 51.74 53.73 58.96 60.42 61.30 60.59 62.61 67.09 68.37
51.68 50.90 56.53 61.74 64.89 63.53 62.73 56.97 49.20 55.04 54.41 57.13 56.25 56.77 54.19 55.46 54.30 55.80 55.20 54.25 56.91 54.43 51.95 49.88 49.29 53.96 55.20 53.31 51.41 51.87 50.60 47.16 44.75 45.82 47.68 53.25 49.29 52.42 57.98 59.19 59.70 60.62 61.64 63.62 66.98
50.75 61.40 63.06 65.17 64.07 63.81 59.26 52.13 52.79 55.48 55.73 54.81 55.73 53.33 54.10 54.56 54.48 53.96 55.03 54.53 56.19 56.25 51.04 50.29 50.83 56.43 56.24 56.18 54.41 51.52 50.04 53.31 49.29 50.60 47.91 49.88 53.08 55.92 57.84 56.96 58.11 59.00 62.64 63.78 66.00
60.73 64.75 62.70 64.10 64.28 62.64 57.21 50.49 56.02 57.72 56.88 56.07 52.16 54.81 53.05 54.31 53.47 54.49 55.22 57.26 55.84 57.78 58.10 54.73 50.27 55.63 57.09 56.79 55.79 53.09 54.41 49.61 50.68 45.33 43.69 48.06 50.24 51.63 55.63 56.60 59.65 59.84 62.09 64.05 66.87
60.48 62.46 63.40 65.17 64.25 59.51 53.90 55.77 57.30 59.05 57.66 55.59 54.20 53.98 55.06 54.45 55.56 54.89 54.69 57.01 58.55 57.66 58.59 56.42 53.90 53.10 55.91 54.18 52.95 53.40 50.68 51.25 51.58 50.35 46.51 44.94 48.93 56.58 57.79 58.59 58.42 59.62 62.78 64.78 66.21
63.93 59.81 64.84 65.25 57.26 58.82 55.86 58.07 52.62 57.49 58.29 57.16 56.93 56.02 54.69 55.14 54.80 55.26 55.03 56.98 58.99 59.03 55.96 57.43 54.42 50.98 52.72 56.70 57.84 55.92 52.98 52.08 47.59 48.27 50.14 49.30 49.65 58.60 57.29 58.26 59.17 60.51 63.71 66.69 68.00
61.40 61.47 64.79 63.67 55.37 57.26 59.97 57.49 58.02 56.66 56.96 56.82 55.85 57.27 57.54 55.20 53.21 55.34 56.26 59.21 58.88 58.00 56.61 57.58 53.88 49.57 50.73 53.91 56.31 54.48 54.57 53.60 52.82 52.31 50.94 47.55 49.84 58.24 60.59 59.81 59.84 60.78 65.24 67.76 67.62
61.36 58.10 61.41 60.99 60.07 56.79 56.08 55.98 56.00 58.97 57.22 57.62 56.22 57.62 56.17 54.74 56.55 54.49 54.83 57.39 58.96 57.81 61.34 60.92 54.07 51.83 48.89 52.16 54.48 52.59 53.92 55.01 54.26 50.03 51.25 50.35 52.50 56.58 58.14 58.25 59.11 62.22 67.97 68.22 69.02
60.18 57.24 56.99 56.66 57.61 57.73 56.11 55.89 53.91 54.11 57.48 58.20 56.42 56.07 55.29 53.63 54.42 54.32 56.41 57.27 58.46 61.81 58.64 56.83 51.78 53.27 53.64 54.04 54.20 53.32 53.49 53.77 51.68 52.07 50.39 53.23 53.54 56.99 58.91 59.43 60.22 58.89 67.33 68.00 68.46
56.65 55.00 56.89 56.17 56.13 54.50 51.90 53.86 53.28 54.12 54.47 53.70 52.64 54.09 55.05 53.14 54.10 52.48 54.43 55.52 55.60 58.39 58.21 58.29 53.61 53.98 51.51 53.77 53.80 52.34 53.60 54.43 54.45 53.78 53.12 54.43 55.23 59.05 60.01 61.93 60.60 62.33 65.15 67.49 68.67
58.30 59.62 58.09 53.31 55.07 53.15 54.00 54.10 53.08 53.58 53.86 54.56 53.50 52.92 52.46 53.74 55.08 55.46 56.06 56.13 55.91 55.19 55.40 55.54 53.87 52.53 49.29 53.63 53.38 50.06 53.16 53.74 54.55 56.10 55.00 51.63 56.95 59.69 59.59 61.05 61.72 63.02 62.14 67.77 68.88
MSLP
1016.75 1016.49 1016.28 1016.05 1015.88 1015.63 1015.40 1015.21 1015.01 1014.68 1014.25 1013.95 1013.59 1013.27 1013.09 1012.90 1012.14 1011.53 1009.33 1007.42 1007.27 1007.49 1008.02 1006.89 1006.31 1005.19 1004.53 1003.90 1004.23 1006.85 1009.38 1008.31 1006.68 1006.27 1006.53 1006.44 1006.05 1005.60 1005.02 1005.17 1004.75 1004.95 1005.25 1007.83 1009.28
1016.76 1016.53 1016.26 1016.02 1015.77 1015.52 1015.33 1015.08 1014.91 1014.68 1014.30 1013.94 1013.61 1013.30 1013.07 1012.86 1011.37 1009.02 1006.95 1007.01 1007.27 1007.50 1007.54 1006.02 1004.88 1004.05 1003.51 1002.94 1003.43 1006.52 1008.29 1007.69 1005.70 1005.44 1006.14 1005.68 1006.20 1006.27 1005.66 1006.08 1005.60 1006.13 1007.56 1008.55 1009.55
1016.80 1016.58 1016.33 1016.05 1015.76 1015.53 1015.26 1014.94 1014.75 1014.54 1014.22 1013.82 1013.53 1013.31 1013.01 1012.69 1010.20 1006.25 1005.71 1006.66 1007.10 1007.43 1006.86 1005.27 1004.27 1003.35 1002.57 1002.74 1004.08 1005.15 1006.99 1005.31 1005.19 1005.28 1005.51 1005.23 1005.48 1005.77 1006.14 1007.19 1006.84 1006.35 1007.29 1008.22 1009.42
1016.86 1016.58 1016.32 1016.01 1015.78 1015.53 1015.24 1014.87 1014.68 1014.40 1014.12 1013.77 1013.42 1013.27 1013.05 1012.01 1008.26 1006.25 1006.72 1006.75 1007.03 1007.09 1006.79 1005.30 1004.12 1003.01 1002.26 1002.44 1003.14 1005.08 1006.07 1004.94 1004.91 1005.21 1004.83 1005.25 1005.80 1006.14 1006.99 1007.71 1006.96 1006.33 1007.18 1007.66 1009.03
1016.89 1016.65 1016.36 1016.03 1015.71 1015.41 1015.10 1014.80 1014.54 1014.24 1013.92 1013.61 1013.39 1013.26 1012.93 1010.20 1006.55 1006.36 1006.82 1007.07 1006.97 1007.05 1006.14 1004.66 1003.66 1002.66 1002.18 1001.89 1002.75 1003.86 1004.43 1004.37 1004.78 1004.84 1004.84 1005.51 1006.10 1007.29 1007.88 1007.39 1006.43 1006.42 1006.78 1007.10 1007.98
1016.93 1016.63 1016.32 1015.97 1015.62 1015.24 1014.88 1014.62 1014.27 1013.95 1013.60 1013.39 1013.31 1013.32 1011.93 1007.85 1004.79 1005.74 1006.01 1006.52 1006.10 1006.19 1005.29 1004.29 1003.35 1002.95 1002.72 1002.21 1002.45 1003.38 1003.76 1003.93 1004.49 1004.41 1004.57 1005.11 1006.14 1007.02 1008.35 1007.09 1006.09 1006.45 1006.63 1006.75 1007.85
1016.93 1016.54 1016.19 1015.84 1015.45 1015.07 1014.71 1014.39 1014.01 1013.62 1013.32 1013.15 1013.16 1012.71 1009.74 1005.80 1004.38 1004.92 1005.30 1005.65 1005.60 1005.30 1004.59 1003.98 1003.58 1003.32 1002.72 1002.30 1002.98 1002.41 1003.14 1003.65 1005.40 1004.40 1004.23 1004.93 1005.70 1006.42 1007.23 1007.16 1006.54 1006.38 1006.20 1006.35 1006.81
1016.91 1016.48 1016.09 1015.72 1015.36 1014.99 1014.53 1014.08 1013.62 1013.20 1012.94 1012.89 1013.00 1011.87 1007.89 1004.10 1004.22 1004.22 1004.67 1004.90 1005.13 1004.69 1004.46 1003.87 1003.79 1003.80 1003.30 1002.55 1002.51 1002.44 1002.57 1003.88 1005.20 1003.96 1003.68 1004.76 1005.39 1006.30 1006.82 1006.49 1006.52 1006.11 1005.96 1006.29 1006.72
1016.73 1016.37 1016.00 1015.56 1015.15 1014.76 1014.29 1013.79 1013.17 1012.76 1012.64 1012.71 1012.38 1010.35 1005.99 1004.55 1004.25 1003.92 1004.06 1004.17 1004.52 1004.44 1004.44 1004.39 1004.51 1003.91 1003.21 1002.51 1002.04 1002.71 1003.09 1003.08 1003.23 1003.16 1003.27 1003.70 1004.48 1005.35 1006.02 1005.64 1006.13 1006.21 1006.17 1006.37 1006.65
1016.55 1016.16 1015.78 1015.38 1015.00 1014.56 1013.87 1013.45 1012.56 1012.60 1012.28 1011.52 1010.08 1008.68 1004.94 1003.51 1003.33 1003.43 1003.75 1003.85 1003.97 1004.19 1004.28 1004.45 1004.19 1003.52 1002.78 1002.02 1001.45 1002.44 1002.38 1001.81 1001.43 1002.33 1002.36 1002.76 1003.03 1003.81 1004.81 1005.80 1005.45 1006.10 1006.40 1006.27 1006.48
1016.36 1015.96 1015.56 1015.18 1014.83 1014.54 1013.42 1012.06 1011.95 1010.82 1009.55 1006.90 1005.46 1004.08 1002.17 1002.60 1002.69 1003.15 1003.55 1003.65 1003.69 1003.90 1003.73 1003.63 1003.43 1002.57 1001.68 1001.09 1000.57 1000.57 1000.66 1000.96 1000.88 1001.14 1001.74 1002.00 1001.93 1002.80 1004.67 1004.47 1004.69 1004.87 1005.34 1005.56 1005.85
1016.06 1015.63 1015.23 1014.88 1014.57 1014.34 1014.09 1010.29 1006.47 1005.92 1005.38 1005.04 1004.16 1003.05 1002.26 1001.62 1002.33 1002.74 1003.24 1003.49 1003.44 1003.27 1003.20 1003.06 1002.12 1001.80 1001.24 1000.76 1000.40 1000.24 1000.63 1000.59 1000.29 1000.27 1001.22 1001.44 1001.58 1001.70 1002.42 1002.72 1003.23 1004.21 1004.56 1004.66 1005.40
1015.77 1015.25 1014.80 1014.48 1014.12 1013.62 1010.89 1008.15 1006.08 1005.61 1004.51 1002.28 1002.24 1002.18 1001.78 1002.12 1001.83 1001.96 1002.70 1002.94 1002.62 1002.67 1002.35 1001.83 1001.16 1000.60 1000.37 1000.57 1000.22 999.97 1000.39 1000.23 1000.03 1000.00 1000.35 1000.59 1000.69 1001.52 1001.76 1002.63 1002.09 1002.64 1003.55 1003.99 1004.55
1015.48 1014.95 1014.46 1014.11 1013.89 1009.50 1008.17 1006.95 1006.44 1005.74 1003.88 1000.40 1000.50 1000.69 1001.11 1001.61 1001.36 1001.07 1001.46 1002.40 1002.23 1001.89 1001.36 1000.95 1000.54 1000.07 999.84 1000.12 1000.15 999.58 999.75 999.65 999.92 1000.34 1000.21 1000.58 1000.50 1000.79 1002.04 1002.20 1001.75 1001.40 1002.13 1002.91 1003.75
1015.06 1014.58 1014.26 1014.34 1012.27 1008.17 1005.97 1005.77 1005.65 1005.44 1002.56 999.97 999.88 999.87 1000.17 1000.84 999.81 1000.42 1000.48 1001.57 1001.62 1001.17 1001.21 1000.43 999.81 999.82 999.71 999.62 999.72 999.75 999.76 999.57 999.92 1000.22 1000.01 999.32 999.92 1000.56 1001.25 1002.27 1000.25 1000.09 1000.62 1001.03 1001.79
1014.51 1014.10 1013.91 1013.03 1011.88 1008.19 1006.32 1005.92 1005.92 1004.46 1000.39 999.29 999.64 1000.05 1000.07 1000.27 1000.29 999.70 1000.48 1001.32 1001.29 1001.18 1000.71 1000.10 999.78 999.23 999.13 999.19 999.45 999.69 999.90 999.90 999.83 999.90 999.32 998.23 997.93 998.68 998.64 998.70 999.02 998.73 998.93 999.65 1000.26
1013.81 1013.56 1013.51 1010.71 1007.37 1006.62 1006.48 1005.87 1004.59 1001.96 998.89 998.57 998.64 999.14 999.86 999.67 1000.10 999.73 1000.32 1000.76 1000.94 1000.70 1000.07 999.46 998.89 998.60 998.95 999.42 999.35 999.46 999.75 999.58 999.19 998.71 997.87 998.24 998.02 996.21 996.73 996.96 996.96 996.96 997.47 998.19 999.12
1012.93 1012.83 1010.86 1009.38 1007.79 1006.84 1006.22 1005.40 1002.96 999.60 998.40 998.30 998.63 998.14 998.65 999.07 999.45 999.27 999.79 999.92 1000.16 1000.18 999.21 998.18 997.05 997.29 998.03 998.55 998.79 998.42 998.94 998.81 997.97 997.42 997.66 998.16 996.53 995.02 995.08 995.44 995.73 996.00 996.49 997.28 998.09
1012.16 1010.64 1009.13 1007.37 1007.57 1006.75 1005.88 1003.86 1001.06 999.55 999.36 999.05 998.56 998.25 997.84 998.19 998.62 998.99 998.68 998.79 998.94 999.03 999.14 998.23 997.15 996.53 997.08 997.54 998.38 998.14 998.24 998.60 998.12 997.58 997.17 996.30 995.17 994.40 994.55 994.93 995.20 995.44 996.04 996.86 997.61
1011.14 1008.32 1006.22 1006.21 1006.80 1006.51 1005.27 1002.88 1001.02 1000.43 1000.35 1000.26 999.39 998.25 997.57 997.26 997.77 998.00 997.58 997.52 997.65 997.72 997.90 997.92 997.57 996.95 996.22 996.92 997.46 997.88 997.91 997.87 997.71 997.77 997.29 996.41 995.82 995.14 994.91 995.05 995.20 995.39 995.77 996.55 997.42
1010.43 1006.57 1005.68 1005.87 1006.16 1005.67 1003.88 1001.58 1000.61 1000.53 1001.29 1000.75 999.98 999.22 998.38 997.82 997.24 996.91 996.81 997.04 996.64 996.61 997.02 997.36 997.36 997.23 996.63 996.40 996.65 996.86 997.44 997.71 997.49 997.36 996.94 996.40 995.84 995.46 995.13 995.24 995.53 995.73 995.68 996.25 997.17
1008.84 1005.06 1005.21 1005.24 1005.20 1003.86 1002.61 1001.43 1001.91 1001.32 1000.97 1001.13 1000.91 1000.41 1000.05 999.42 998.48 997.58 996.82 996.34 996.67 997.05 996.74 996.88 996.95 996.83 996.48 996.19 995.85 996.11 996.41 996.98 997.33 997.68 997.54 997.02 996.08 995.15 995.23 995.21 995.62 995.99 996.09 996.53 997.18
1009.18 1004.97 1004.75 1004.81 1003.86 1002.57 1001.44 1001.40 1001.64 1001.88 1001.49 1001.28 1001.25 1001.08 1000.75 1000.37 1000.01 999.15 998.29 997.64 997.85 998.01 998.38 998.21 997.52 997.02 996.64 996.31 995.66 995.26 995.90 996.46 996.76 996.82 996.68 996.36 995.95 995.60 996.24 995.90 995.99 996.33 996.61 997.18 997.54
1009.58 1004.96 1004.16 1004.45 1004.18 1003.63 1002.80 1002.36 1002.02 1002.01 1002.56 1002.52 1002.40 1002.43 1001.98 1001.42 1000.91 1000.16 999.63 998.98 998.46 998.90 999.50 999.74 999.13 998.61 997.52 996.34 996.05 996.46 996.68 997.71 997.32 997.67 997.05 995.75 995.44 995.85 996.62 996.21 997.50 996.81 996.53 997.38 997.88
1008.89 1006.44 1006.19 1004.32 1004.06 1004.45 1004.26 1003.75 1003.36 1002.88 1002.67 1002.98 1003.30 1003.05 1002.56 1002.19 1001.79 1001.35 1000.78 999.76 999.12 999.06 999.57 999.86 999.52 999.52 998.63 997.67 996.85 996.51 996.87 997.09 997.81 997.51 998.19 996.63 995.08 995.40 996.29 997.24 997.09 998.01 996.64 997.48 998.19
1010.53 1009.43 1008.18 1006.60 1005.69 1005.31 1004.53 1004.26 1004.06 1004.17 1004.49 1004.40 1004.33 1003.98 1003.83 1003.58 1003.69 1003.32 1002.96 1002.22 1001.48 1000.88 1000.16 1000.01 999.57 999.71 998.93 998.47 997.72 996.97 996.63 996.76 997.49 997.76 997.50 996.61 995.28 994.81 995.59 996.76 996.81 997.32 996.40 997.56 998.18
1012.73 1011.28 1009.79 1007.52 1006.05 1005.42 1005.03 1005.40 1005.62 1005.86 1005.93 1005.48 1005.56 1005.54 1005.03 1004.75 1005.05 1005.10 1004.88 1004.17 1003.34 1002.65 1001.97 1001.68 1001.16 1000.81 999.52 999.57 998.58 996.98 996.53 996.38 996.39 997.03 996.72 996.94 995.63 994.22 994.58 995.76 996.87 996.65 996.45 996.58 997.77
Wind_Speed
12 12 11 12 12 11 11 11 11 11 12 13 14 14 13 13 17 8 11 3 7 13 4 12 15 13 15 11 6 10 4 8 2 2 2 4 1 6 6 9 11 11 18 21 21
13 12 12 13 13 13 12 11 11 10 11 12 13 13 13 12 11 17 10 9 9 11 9 14 13 14 12 17 2 9 6 9 8 6 4 5 11 3 5 13 7 19 22 22 18
14 14 13 14 13 13 12 12 11 11 12 12 12 12 11 13 10 11 19 15 12 11 16 17 16 10 17 7 11 9 5 6 12 7 15 3 2 7 7 6 8 16 16 25 20
14 14 15 15 14 14 13 13 12 12 12 11 11 10 9 7 5 7 6 10 11 11 13 18 14 16 17 5 12 8 16 6 6 4 2 4 4 3 8 3 13 17 18 16 23
15 15 15 15 15 14 14 13 13 13 13 11 9 7 7 9 15 10 10 8 10 11 15 15 14 13 12 10 12 11 11 2 2 2 3 3 4 4 7 21 14 15 15 16 19
16 15 16 16 15 15 14 14 14 14 13 11 7 4 7 13 13 15 13 12 13 14 15 15 13 11 10 13 6 11 2 3 3 3 4 5 5 7 8 21 7 14 14 12 24
16 16 16 16 16 16 15 15 16 14 12 10 6 6 12 18 3 15 14 14 15 15 14 12 11 13 14 7 11 5 9 10 20 13 3 2 4 2 12 9 9 12 12 12 13
16 16 16 16 16 16 16 17 17 14 11 7 6 9 10 12 11 9 13 14 16 13 14 12 9 12 14 15 13 11 14 6 10 14 7 5 2 7 10 13 13 14 12 11 10
17 16 16 17 16 17 16 18 17 10 7 6 8 10 17 4 12 12 13 15 15 12 11 7 9 14 16 17 12 10 13 6 15 6 1 5 4 14 20 17 15 7 4 12 9
18 17 17 16 17 17 19 16 7 8 7 9 12 10 13 14 12 13 11 13 13 13 11 11 11 13 14 13 8 5 18 13 3 10 3 7 6 11 8 15 15 16 16 12 15
19 18 17 16 17 16 15 5 7 8 13 13 14 13 9 16 13 13 12 12 12 12 15 15 12 14 17 16 19 10 11 9 11 8 2 10 11 17 19 20 14 16 16 17 18
20 19 17 14 12 11 8 8 6 11 11 26 22 18 15 5 11 12 15 12 14 15 15 15 17 16 18 17 15 11 11 12 13 1 4 9 13 13 21 17 13 19 19 19 15
20 19 16 14 14 8 13 17 10 12 9 18 25 20 13 8 13 16 17 16 14 16 16 17 18 21 15 14 17 11 12 14 15 6 12 14 16 1 6 8 12 17 22 20 18
20 17 15 15 6 10 13 17 14 10 8 11 20 16 19 12 17 18 20 15 15 17 15 15 18 18 12 11 14 16 15 14 12 7 13 0 7 12 6 0 25 17 17 26 21
19 17 12 7 13 7 9 1 5 5 8 9 11 1 12 18 8 18 18 15 19 16 12 15 17 12 16 19 12 13 13 16 5 11 16 18 8 11 20 18 23 16 19 19 23
19 15 9 6 7 14 11 2 6 7 9 10 11 10 13 20 17 12 13 12 16 15 17 18 17 15 14 11 13 14 15 14 12 13 14 20 15 11 3 11 11 18 19 20 20
20 12 7 10 3 11 8 7 7 10 3 11 10 13 14 16 18 11 14 15 14 13 15 19 19 20 14 12 15 15 14 11 12 13 12 7 7 6 14 16 21 11 9 18 18
20 10 13 10 12 7 6 8 8 13 7 7 4 11 13 14 16 18 13 14 18 19 18 15 14 22 17 19 14 15 16 12 15 11 7 10 13 5 10 6 6 4 10 8 17
22 6 7 8 13 6 8 10 10 11 13 12 14 6 12 14 11 17 19 14 17 18 17 16 18 9 5 12 13 16 12 17 21 18 14 12 13 0 7 6 7 13 12 8 11
5 9 5 6 8 8 8 15 20 5 9 11 13 16 10 13 17 16 16 16 17 18 17 16 15 18 11 9 12 15 15 14 12 13 13 12 7 10 9 5 7 0 12 12 12
6 7 8 9 7 7 9 15 5 6 3 10 13 16 14 14 14 14 17 17 14 14 16 16 15 15 17 9 12 11 14 17 17 12 11 8 1 1 11 7 3 5 2 13 11
8 4 8 7 8 8 11 6 4 7 8 7 11 12 14 17 19 18 18 9 10 14 13 16 16 16 20 20 17 14 16 18 12 14 10 11 10 5 3 8 10 2 3 8 10
7 3 6 7 9 9 10 4 6 9 11 9 10 14 15 14 15 17 18 17 5 8 8 12 10 13 17 16 19 16 17 18 18 17 15 12 11 7 4 6 4 6 7 6 6
7 3 7 7 10 10 13 11 11 6 3 10 8 13 15 14 14 16 17 19 16 3 6 5 14 19 17 19 3 10 19 17 14 11 16 16 17 11 6 9 14 8 13 11 8
4 6 7 6 7 10 12 13 14 12 12 1 8 14 14 13 14 16 18 20 16 11 7 9 18 21 25 28 28 21 19 15 11 25 19 22 18 5 9 4 7 13 15 13 10
7 6 10 11 8 6 7 8 7 10 14 12 14 19 16 13 14 17 19 19 17 22 17 16 16 18 23 25 25 27 25 14 18 19 11 25 28 12 11 14 6 11 2 9 13
8 8 7 9 7 8 6 11 10 11 7 9 8 10 13 12 15 14 17 20 21 19 18 18 16 16 18 19 25 24 23 25 21 25 24 25 31 13 10 8 6 13 12 20 17
Wind_Direction
354 352 348 346 341 338 338 335 333 328 322 317 313 313 317 317 299 230 251 241 181 172 196 250 228 252 245 247 166 100 42 291 64 304 280 231 4 20 93 274 57 52 105 128 141
352 351 349 345 340 341 337 330 329 325 319 311 309 308 312 324 279 258 231 128 146 159 217 235 225 230 252 262 130 107 128 250 286 128 58 226 128 247 353 25 72 95 115 130 142
352 350 349 345 342 339 331 327 328 325 319 311 303 305 311 308 271 228 152 150 166 186 240 264 277 275 268 90 287 92 296 114 46 16 158 196 158 155 147 78 256 123 128 140 151
352 350 348 346 340 335 330 329 325 317 312 304 300 303 314 265 271 73 139 147 165 209 236 259 256 263 271 154 219 93 249 12 34 48 16 74 66 232 72 4 263 125 145 152 150
351 349 346 341 336 331 327 325 319 311 305 298 291 299 277 230 254 137 152 153 174 205 229 248 252 268 295 310 75 63 290 103 63 113 132 117 32 58 80 181 230 138 158 169 148
348 344 342 339 334 329 326 320 313 307 301 289 273 278 251 250 110 140 171 167 197 204 232 253 267 355 305 285 233 182 310 244 162 134 193 195 172 108 258 266 170 148 171 176 145
343 339 337 336 333 328 321 316 312 302 293 277 247 248 263 248 340 156 186 190 213 212 243 239 283 299 291 311 335 293 245 209 49 309 222 161 172 175 175 276 187 180 177 175 164
341 338 336 334 330 324 317 312 306 294 280 253 221 242 266 241 244 217 188 195 211 224 253 304 318 275 287 298 222 244 246 66 195 238 122 231 69 190 207 196 207 193 177 165 161
339 338 335 332 329 323 313 309 299 284 249 207 221 228 260 124 223 219 198 206 205 225 234 273 275 269 265 255 265 12 338 250 167 158 220 206 168 193 213 189 204 193 264 169 188
337 335 333 330 328 323 313 292 290 290 223 204 260 261 253 224 196 199 198 212 204 217 217 231 247 249 244 257 233 247 234 227 117 162 158 272 205 198 171 206 192 173 221 197 189
333 331 328 324 323 323 320 213 208 197 224 223 192 226 127 218 170 191 194 210 204 218 227 225 240 239 248 241 268 242 317 317 299 125 279 273 287 170 171 217 194 169 216 193 197
330 327 321 313 308 309 278 246 336 325 294 220 248 243 272 153 173 198 191 205 214 226 225 243 234 248 258 274 281 300 307 272 265 147 243 262 267 275 185 192 193 190 202 201 197
328 323 313 311 314 271 229 245 282 311 276 272 206 228 228 206 221 199 192 213 226 222 242 239 252 234 234 260 269 257 265 285 291 326 309 291 255 72 274 338 213 199 197 201 197
322 318 311 315 282 233 215 231 257 274 278 242 181 213 216 202 240 243 186 216 224 256 253 244 248 263 247 251 272 277 270 245 251 298 280 28 268 202 144 245 275 196 204 189 197
316 313 301 271 322 253 31 228 220 245 279 118 151 114 201 199 281 198 193 198 244 242 237 266 248 248 258 262 239 271 277 290 302 290 277 263 234 120 151 222 228 193 197 210 187
318 311 303 205 223 263 304 153 235 233 256 161 144 196 213 203 237 184 202 205 236 250 271 265 273 262 263 272 263 255 277 274 253 257 260 257 275 161 179 205 165 198 206 194 198
318 303 240 308 356 205 237 232 223 249 121 145 186 179 209 199 221 184 192 212 228 228 245 251 239 238 241 251 252 245 236 251 242 236 249 45 281 338 161 178 195 175 181 186 189
317 301 210 260 309 261 234 224 255 268 293 76 321 195 197 219 201 218 213 229 215 252 277 280 265 208 208 222 264 242 228 240 253 281 308 227 259 222 160 151 243 198 204 202 182
314 202 220 187 229 229 229 223 248 354 14 358 323 223 233 210 221 213 225 233 234 213 245 283 291 95 177 204 216 264 220 259 278 292 287 291 296 187 222 134 219 225 136 172 185
280 254 116 143 155 219 241 256 298 34 347 302 281 289 276 203 199 231 232 218 233 240 234 245 270 282 262 181 217 233 272 236 227 262 270 271 295 309 82 156 83 10 167 173 177
241 234 122 156 188 231 247 252 297 43 9 307 298 304 315 302 288 241 225 253 244 226 232 247 254 262 280 212 231 240 223 259 278 288 300 294 242 39 168 159 155 251 153 159 171
291 289 133 180 221 224 246 299 334 292 278 288 280 290 291 300 305 307 304 279 12 310 253 245 236 245 252 251 241 212 255 218 240 249 263 283 277 16 183 185 183 142 144 122 161
278 34 149 220 261 282 288 226 299 296 308 332 311 320 324 310 308 298 298 306 11 315 20 342 296 276 256 264 268 234 217 231 240 233 245 251 255 126 63 325 209 190 172 127 171
276 248 151 198 258 282 303 316 295 140 270 293 304 308 294 288 280 278 278 284 287 251 91 324 279 275 282 289 294 335 309 295 308 317 305 250 251 108 72 71 294 280 160 163 185
279 31 7 314 36 343 318 320 298 300 307 134 309 293 297 296 299 303 302 306 291 277 230 251 267 268 272 278 287 291 264 231 276 285 288 299 281 173 136 224 41 295 165 164 181
344 348 346 298 310 288 252 275 349 332 2 327 318 322 333 321 319 316 320 314 320 320 315 292 285 261 267 274 277 276 276 247 222 246 276 303 287 284 156 171 162 263 293 170 180
6 340 293 293 306 296 34 343 333 332 306 319 330 317 303 323 340 317 302 294 292 293 296 298 297 305 279 290 293 272 255 266 236 227 207 218 246 280 225 335 240 206 214 181 173